TimeCST,TemperatureF,Dew PointF,Humidity,Sea Level PressureIn,VisibilityMPH,Wind Direction,Wind SpeedMPH,Gust SpeedMPH,PrecipitationIn,Events,Conditions,WindDirDegrees,DateUTC
12:32 AM,37.4,33.8,87,30.05,10.0,WNW,8.1,-,N/A,,Overcast,300,2012-12-29 06:32:00
12:53 AM,37.9,33.1,83,30.06,10.0,WNW,11.5,19.6,N/A,,Overcast,290,2012-12-29 06:53:00
1:24 AM,37.4,33.8,87,30.06,10.0,WNW,11.5,-,N/A,,Overcast,290,2012-12-29 07:24:00
1:53 AM,37.0,32.0,82,30.08,10.0,WNW,10.4,-,N/A,,Overcast,290,2012-12-29 07:53:00
2:53 AM,37.0,32.0,82,30.11,10.0,West,9.2,-,N/A,,Overcast,280,2012-12-29 08:53:00
3:53 AM,36.0,30.0,79,30.13,10.0,West,10.4,-,N/A,,Overcast,280,2012-12-29 09:53:00
4:08 AM,35.6,30.2,81,30.13,10.0,West,6.9,16.1,N/A,,Overcast,280,2012-12-29 10:08:00
4:53 AM,35.1,28.9,78,30.14,10.0,West,8.1,-,N/A,,Overcast,280,2012-12-29 10:53:00
5:01 AM,35.6,28.4,75,30.15,10.0,West,9.2,-,N/A,,Overcast,280,2012-12-29 11:01:00
6:53 AM,30.9,26.1,82,30.21,10.0,West,9.2,-,N/A,,Partly Cloudy,280,2012-12-29 12:53:00
7:53 AM,30.9,24.1,76,30.24,10.0,WNW,10.4,-,N/A,,Clear,290,2012-12-29 13:53:00
8:53 AM,33.1,24.1,70,30.25,10.0,WNW,12.7,-,N/A,,Clear,300,2012-12-29 14:53:00
9:53 AM,34.0,21.0,59,30.29,10.0,NW,12.7,21.9,N/A,,Clear,320,2012-12-29 15:53:00
10:53 AM,36.0,21.9,57,30.30,10.0,WNW,10.4,16.1,N/A,,Clear,290,2012-12-29 16:53:00
11:53 AM,37.9,21.9,53,30.28,10.0,WNW,10.4,18.4,N/A,,Clear,290,2012-12-29 17:53:00
12:53 PM,39.0,21.0,49,30.28,10.0,NW,12.7,20.7,N/A,,Clear,310,2012-12-29 18:53:00
1:53 PM,39.9,21.0,47,30.29,10.0,WNW,12.7,20.7,N/A,,Clear,300,2012-12-29 19:53:00
2:53 PM,39.9,19.9,45,30.31,10.0,NW,10.4,18.4,N/A,,Clear,310,2012-12-29 20:53:00
3:53 PM,39.9,21.0,47,30.33,10.0,WNW,8.1,-,N/A,,Clear,300,2012-12-29 21:53:00
4:53 PM,37.9,19.9,48,30.35,10.0,NNW,3.5,-,N/A,,Clear,340,2012-12-29 22:53:00
5:53 PM,35.1,19.9,54,30.38,10.0,Calm,Calm,-,N/A,,Clear,0,2012-12-29 23:53:00
6:53 PM,30.9,21.9,69,30.41,10.0,Calm,Calm,-,N/A,,Clear,0,2012-12-30 00:53:00
7:53 PM,30.0,21.0,69,30.42,10.0,Calm,Calm,-,N/A,,Clear,0,2012-12-30 01:53:00
8:53 PM,30.9,21.0,67,30.43,10.0,Calm,Calm,-,N/A,,Clear,0,2012-12-30 02:53:00
9:53 PM,27.0,21.9,81,30.44,10.0,Calm,Calm,-,N/A,,Clear,0,2012-12-30 03:53:00
10:53 PM,27.0,21.0,78,30.45,10.0,Calm,Calm,-,N/A,,Clear,0,2012-12-30 04:53:00
11:53 PM,26.1,21.0,81,30.45,10.0,Calm,Calm,-,N/A,,Clear,0,2012-12-30 05:53:00